When you browse on this site, cookies collect data to enhance your experience and personalize the content and advertising you see.
Visit our Privacy Policy to learn more. By continuing to use the site, you agree to this use of cookies and data.
  • en Suisse
  • Liste des pays
  • À 7 jours
  • Température de l'eau
  • Carte météo
  • Widgets météo
  • user-avatar
    Se connecter

    Météo par heure à Linares

    Ce jour, 19 Septembre, Jeudi

    Heure Température Précipitation Vent Pression Humidité
    00:00 +24°C° 0 mm 1 m/s 726 mmHg 54%
    01:00 +23°C° 0 mm 1 m/s 726 mmHg 56%
    02:00 +22°C° 0 mm 1 m/s 726 mmHg 58%
    03:00 +22°C° 0 mm 1 m/s 726 mmHg 60%
    04:00 +21°C° 0 mm 1 m/s 726 mmHg 62%
    05:00 +19°C° 0 mm 0 m/s 726 mmHg 64%
    06:00 +18°C° 0 mm 0 m/s 726 mmHg 65%
    07:00 +20°C° 0 mm 0 m/s 726 mmHg 59%
    08:00 +22°C° 0 mm 0 m/s 727 mmHg 53%
    09:00 +24°C° 0 mm 0 m/s 727 mmHg 47%
    10:00 +27°C° 0 mm 1 m/s 727 mmHg 43%
    11:00 +29°C° 0 mm 1 m/s 727 mmHg 39%
    12:00 +30°C° 0 mm 1 m/s 727 mmHg 35%
    13:00 +31°C° 0 mm 2 m/s 727 mmHg 32%
    14:00 +32°C° 0 mm 2 m/s 726 mmHg 30%
    15:00 +32°C° 0 mm 2 m/s 726 mmHg 27%
    16:00 +31°C° 0 mm 2 m/s 726 mmHg 29%
    17:00 +30°C° 0 mm 2 m/s 726 mmHg 31%
    18:00 +29°C° 0 mm 2 m/s 726 mmHg 34%
    19:00 +28°C° 0 mm 2 m/s 726 mmHg 35%
    20:00 +27°C° 0 mm 1 m/s 726 mmHg 37%
    21:00 +26°C° 0 mm 1 m/s 727 mmHg 38%
    22:00 +26°C° 0 mm 1 m/s 727 mmHg 39%
    23:00 +25°C° 0 mm 1 m/s 726 mmHg 41%

    Demain, 20 Septembre, Vendredi

    Heure Température Précipitation Vent Pression Humidité
    00:00 +23°C° 0 mm 0 m/s 726 mmHg 42%
    01:00 +22°C° 0 mm 0 m/s 726 mmHg 44%
    02:00 +24°C° 0 mm 1 m/s 726 mmHg 46%
    03:00 +23°C° 0 mm 1 m/s 726 mmHg 49%
    04:00 +23°C° 0 mm 1 m/s 725 mmHg 51%
    05:00 +20°C° 0 mm 0 m/s 725 mmHg 53%
    06:00 +20°C° 0 mm 0 m/s 725 mmHg 56%
    07:00 +21°C° 0 mm 0 m/s 726 mmHg 52%
    08:00 +22°C° 0 mm 0 m/s 726 mmHg 49%
    09:00 +23°C° 0 mm 0 m/s 726 mmHg 46%
    10:00 +26°C° 0 mm 1 m/s 726 mmHg 44%
    11:00 +27°C° 0 mm 1 m/s 726 mmHg 41%
    12:00 +28°C° 0 mm 1 m/s 726 mmHg 39%
    13:00 +29°C° 0.2 mm 2 m/s 725 mmHg 38%
    14:00 +29°C° 0.2 mm 2 m/s 725 mmHg 38%
    15:00 +29°C° 0.2 mm 3 m/s 725 mmHg 37%
    16:00 +28°C° 0.4 mm 2 m/s 724 mmHg 42%
    17:00 +27°C° 0.4 mm 2 m/s 724 mmHg 47%
    18:00 +26°C° 0.4 mm 1 m/s 724 mmHg 52%
    19:00 +25°C° 0.3 mm 1 m/s 724 mmHg 56%
    20:00 +24°C° 0.3 mm 1 m/s 724 mmHg 61%
    21:00 +21°C° 0.3 mm 0 m/s 725 mmHg 65%
    22:00 +21°C° 0.4 mm 0 m/s 724 mmHg 68%
    23:00 +22°C° 0.4 mm 1 m/s 724 mmHg 71%

    Après-demain, 21 Septembre, Samedi

    Heure Température Précipitation Vent Pression Humidité
    00:00 +22°C° 0.4 mm 1 m/s 724 mmHg 74%
    01:00 +21°C° 0.4 mm 1 m/s 724 mmHg 78%
    02:00 +21°C° 0.4 mm 1 m/s 724 mmHg 81%
    03:00 +18°C° 0.4 mm 0 m/s 724 mmHg 85%
    04:00 +18°C° 0 mm 0 m/s 723 mmHg 86%
    05:00 +18°C° 0 mm 0 m/s 723 mmHg 87%
    06:00 +17°C° 0 mm 0 m/s 723 mmHg 89%
    07:00 +18°C° 0 mm 0 m/s 723 mmHg 82%
    08:00 +20°C° 0 mm 0 m/s 724 mmHg 76%
    09:00 +23°C° 0 mm 1 m/s 724 mmHg 70%
    10:00 +24°C° 0 mm 1 m/s 724 mmHg 66%
    11:00 +25°C° 0 mm 2 m/s 724 mmHg 61%
    12:00 +26°C° 0 mm 2 m/s 724 mmHg 57%
    13:00 +26°C° 0 mm 3 m/s 723 mmHg 55%
    14:00 +27°C° 0 mm 3 m/s 723 mmHg 53%
    15:00 +27°C° 0 mm 3 m/s 723 mmHg 52%
    16:00 +27°C° 0 mm 3 m/s 723 mmHg 53%
    17:00 +26°C° 0 mm 2 m/s 723 mmHg 54%
    18:00 +26°C° 0 mm 2 m/s 723 mmHg 55%
    19:00 +25°C° 0 mm 3 m/s 723 mmHg 58%
    20:00 +24°C° 0 mm 3 m/s 724 mmHg 60%
    21:00 +22°C° 0 mm 4 m/s 724 mmHg 63%
    22:00 +22°C° 0 mm 3 m/s 724 mmHg 67%
    23:00 +21°C° 0 mm 3 m/s 724 mmHg 70%

    22 Septembre, Dimanche

    Heure Température Précipitation Vent Pression Humidité
    00:00 +20°C° 0 mm 2 m/s 724 mmHg 74%
    01:00 +20°C° 0 mm 2 m/s 724 mmHg 77%
    02:00 +20°C° 0 mm 2 m/s 724 mmHg 80%
    03:00 +19°C° 0 mm 2 m/s 724 mmHg 83%
    04:00 +20°C° 0.1 mm 1 m/s 724 mmHg 84%
    05:00 +20°C° 0.1 mm 1 m/s 724 mmHg 85%
    06:00 +20°C° 0.1 mm 1 m/s 724 mmHg 85%
    07:00 +21°C° 0.2 mm 1 m/s 725 mmHg 83%
    08:00 +21°C° 0.2 mm 1 m/s 725 mmHg 80%
    09:00 +21°C° 0.2 mm 1 m/s 726 mmHg 77%
    10:00 +23°C° 0.1 mm 2 m/s 726 mmHg 68%
    11:00 +24°C° 0.1 mm 3 m/s 726 mmHg 58%
    12:00 +25°C° 0.1 mm 4 m/s 726 mmHg 49%
    13:00 +26°C° 0 mm 4 m/s 726 mmHg 43%
    14:00 +27°C° 0 mm 4 m/s 726 mmHg 37%
    15:00 +27°C° 0 mm 4 m/s 726 mmHg 31%
    16:00 +26°C° 0 mm 3 m/s 726 mmHg 33%
    17:00 +25°C° 0 mm 3 m/s 726 mmHg 35%
    18:00 +24°C° 0 mm 2 m/s 726 mmHg 37%
    19:00 +23°C° 0 mm 2 m/s 727 mmHg 39%
    20:00 +22°C° 0 mm 1 m/s 727 mmHg 41%
    21:00 +21°C° 0 mm 1 m/s 727 mmHg 43%
    22:00 +20°C° 0 mm 1 m/s 727 mmHg 44%
    23:00 +20°C° 0 mm 1 m/s 727 mmHg 45%

    23 Septembre, Lundi

    Heure Température Précipitation Vent Pression Humidité
    00:00 +19°C° 0 mm 1 m/s 727 mmHg 46%
    01:00 +19°C° 0 mm 1 m/s 727 mmHg 46%
    02:00 +19°C° 0 mm 1 m/s 727 mmHg 46%
    03:00 +18°C° 0 mm 1 m/s 727 mmHg 47%
    04:00 +18°C° 0 mm 1 m/s 727 mmHg 47%
    05:00 +18°C° 0 mm 1 m/s 728 mmHg 47%
    06:00 +18°C° 0 mm 1 m/s 728 mmHg 46%
    07:00 +20°C° 0 mm 1 m/s 728 mmHg 42%
    08:00 +21°C° 0 mm 1 m/s 728 mmHg 38%
    09:00 +23°C° 0 mm 1 m/s 729 mmHg 34%
    10:00 +25°C° 0 mm 1 m/s 729 mmHg 31%
    11:00 +27°C° 0 mm 1 m/s 729 mmHg 28%
    12:00 +29°C° 0 mm 1 m/s 729 mmHg 25%
    13:00 +29°C° 0 mm 1 m/s 729 mmHg 23%
    14:00 +30°C° 0 mm 1 m/s 728 mmHg 22%
    15:00 +30°C° 0 mm 1 m/s 728 mmHg 20%
    16:00 +29°C° 0 mm 1 m/s 728 mmHg 23%
    17:00 +28°C° 0 mm 1 m/s 728 mmHg 25%
    18:00 +27°C° 0 mm 1 m/s 728 mmHg 28%
    19:00 +26°C° 0 mm 1 m/s 728 mmHg 29%
    20:00 +25°C° 0 mm 1 m/s 728 mmHg 31%
    21:00 +22°C° 0 mm 0 m/s 729 mmHg 33%
    22:00 +23°C° 0 mm 1 m/s 729 mmHg 34%
    23:00 +23°C° 0 mm 1 m/s 728 mmHg 35%

    24 Septembre, Mardi

    Heure Température Précipitation Vent Pression Humidité
    00:00 +22°C° 0 mm 1 m/s 728 mmHg 36%
    01:00 +22°C° 0 mm 1 m/s 728 mmHg 36%
    02:00 +22°C° 0 mm 1 m/s 728 mmHg 37%
    03:00 +21°C° 0 mm 1 m/s 727 mmHg 38%
    04:00 +21°C° 0 mm 1 m/s 727 mmHg 39%
    05:00 +20°C° 0 mm 1 m/s 727 mmHg 40%
    06:00 +20°C° 0 mm 1 m/s 727 mmHg 41%
    07:00 +20°C° 0 mm 0 m/s 728 mmHg 37%
    08:00 +22°C° 0 mm 0 m/s 728 mmHg 33%
    09:00 +25°C° 0 mm 0 m/s 728 mmHg 28%
    10:00 +28°C° 0 mm 1 m/s 728 mmHg 26%
    11:00 +30°C° 0 mm 1 m/s 728 mmHg 24%
    12:00 +31°C° 0 mm 2 m/s 728 mmHg 22%
    13:00 +32°C° 0 mm 2 m/s 728 mmHg 21%
    14:00 +33°C° 0 mm 3 m/s 727 mmHg 19%
    15:00 +34°C° 0 mm 3 m/s 726 mmHg 18%
    16:00 +31°C° 0 mm 3 m/s 726 mmHg 20%
    17:00 +30°C° 0 mm 2 m/s 726 mmHg 23%
    18:00 +28°C° 0 mm 2 m/s 726 mmHg 26%
    19:00 +27°C° 0 mm 1 m/s 726 mmHg 27%
    20:00 +26°C° 0 mm 1 m/s 726 mmHg 29%
    21:00 +25°C° 0 mm 1 m/s 726 mmHg 31%
    22:00 +24°C° 0 mm 1 m/s 726 mmHg 33%
    23:00 +24°C° 0 mm 1 m/s 726 mmHg 36%
    Voir plus